Location: Newark
(41.7772°N, 74.7403°W)
Time: 11:38:42
(UTC+00:00)

Transit 4A - Pass Details

Date: 04 June 2020
Orbit: 866 x 978 km, 66.8° (Epoch: 06 July)

Event Time Altitude Azimuth Distance (km) Brightness Sun altitude
Exits shadow 07:56:33 - 277° (W) 3,446 10.5 -13.5°
Reaches altitude 10° 08:00:55 10° 308° (NW) 2,547 10.1 -13.0°
Maximum altitude 08:03:00 12° 329° (NNW) 2,429 10.3 -12.7°
Drops below altitude 10° 08:05:06 10° 350° (N) 2,572 10.7 -12.4°
Sets 08:09:39 0° 21° (NNE) 3,546 12.3 -11.9°
